User: anonymous   Login
Location: Banff
(51.1667°N, 115.5667°W)
Time: 05:41:50
(UTC+00:00)
Language:

S-56A Canister/Altair - Orbit

View from above orbital plane
View from above orbital plane
View from above satellite
View from above satellite

Ground track
Ground track

The orbit data is extracted from the following two-line orbital elements,

1 00082U 61004B   21216.06454838 -.00000085  00000-0 -42418-4 0  9999
2 00082  38.8649 110.5373 1176678 274.9371  71.8280 12.26028569858456
Epoch (UTC): 04 August 2021 01:32:56
Eccentricity: 0.1176678
inclination: 38.8649°
perigee height: 631 km
apogee height: 2501 km
right ascension of ascending node: 110.5373°
argument of perigee: 274.9371°
revolutions per day: 12.26028569
mean anomaly at epoch: 71.8280°
orbit number at epoch: 85845

The dashed part of the orbit path shows where the satellite is in the earth's shadow,  

DLR